| time (UTC) | temp C | wind direction | speed KPH | gust KPH | rain 1hr cm | rain 24hr cm | rain mn cm | humidity % | barometer mb |
| 20260502130359 | 10 | 146 | 12.9 | 25.7 | 0.00 | 0.00 | 0.00 | 48 | 1023.6 |
| 20260502123342 | 8 | 144 | 17.7 | 19.3 | 0.00 | 0.00 | 0.00 | 58 | 1023.5 |
| 20260502122839 | 8 | 165 | 9.7 | 20.9 | 0.00 | 0.00 | 0.00 | 58 | 1023.5 |
| 20260502122334 | 9 | 154 | 8.0 | 19.3 | 0.00 | 0.00 | 0.00 | 57 | 1023.5 |
| 20260502121833 | 9 | 149 | 20.9 | 24.1 | 0.00 | 0.00 | 0.00 | 56 | 1023.5 |
| 20260502121330 | 9 | 128 | 11.3 | 20.9 | 0.00 | 0.00 | 0.00 | 57 | 1023.4 |
| 20260502120827 | 9 | 150 | 16.1 | 22.5 | 0.00 | 0.00 | 0.00 | 57 | 1023.5 |
| 20260502120323 | 9 | 154 | 6.4 | 20.9 | 0.00 | 0.00 | 0.00 | 57 | 1023.4 |
| 20260502115821 | 9 | 155 | 12.9 | 24.1 | 0.00 | 0.00 | 0.00 | 58 | 1023.3 |
| 20260502115318 | 9 | 132 | 8.0 | 16.1 | 0.00 | 0.00 | 0.00 | 59 | 1023.4 |
| 20260502114814 | 9 | 128 | 8.0 | 20.9 | 0.00 | 0.00 | 0.00 | 59 | 1023.4 |
| 20260502114311 | 9 | 142 | 9.7 | 20.9 | 0.00 | 0.00 | 0.00 | 60 | 1023.5 |
| 20260502113808 | 9 | 151 | 6.4 | 22.5 | 0.00 | 0.00 | 0.00 | 60 | 1023.3 |
| 20260502113306 | 10 | 154 | 8.0 | 22.5 | 0.00 | 0.00 | 0.00 | 60 | 1023.4 |
| 20260502112804 | 10 | 144 | 12.9 | 17.7 | 0.00 | 0.00 | 0.00 | 61 | 1023.2 |
| 20260502112301 | 10 | 134 | 14.5 | 20.9 | 0.00 | 0.00 | 0.00 | 62 | 1023.2 |
| 20260502111758 | 10 | 143 | 11.3 | 19.3 | 0.00 | 0.00 | 0.00 | 62 | 1023.3 |
| 20260502111255 | 10 | 122 | 16.1 | 22.5 | 0.00 | 0.00 | 0.00 | 62 | 1023.5 |
| 20260502110753 | 10 | 152 | 11.3 | 19.3 | 0.00 | 0.00 | 0.00 | 61 | 1023.4 |
| 20260502110251 | 10 | 167 | 9.7 | 27.4 | 0.00 | 0.00 | 0.00 | 61 | 1023.5 |
| 20260502105749 | 10 | 144 | 12.9 | 27.4 | 0.00 | 0.00 | 0.00 | 60 | 1023.5 |
| 20260502105244 | 10 | 145 | 16.1 | 20.9 | 0.00 | 0.00 | 0.00 | 59 | 1023.5 |
| 20260502104742 | 10 | 146 | 11.3 | 14.5 | 0.00 | 0.00 | 0.00 | 58 | 1023.5 |
| 20260502104240 | 10 | 162 | 12.9 | 14.5 | 0.00 | 0.00 | 0.00 | 56 | 1023.5 |
| 20260502103737 | 10 | 127 | 6.4 | 16.1 | 0.00 | 0.00 | 0.00 | 54 | 1023.5 |
| 20260502103234 | 10 | 155 | 9.7 | 20.9 | 0.00 | 0.00 | 0.00 | 52 | 1023.4 |
| 20260502102731 | 10 | 152 | 6.4 | 20.9 | 0.00 | 0.00 | 0.00 | 52 | 1023.4 |
| 20260502102228 | 10 | 142 | 8.0 | 17.7 | 0.00 | 0.00 | 0.00 | 52 | 1023.3 |
| 20260502101726 | 10 | 134 | 8.0 | 17.7 | 0.00 | 0.00 | 0.00 | 51 | 1023.3 |
| 20260502101224 | 10 | 125 | 8.0 | 24.1 | 0.00 | 0.00 | 0.00 | 50 | 1023.5 |
| 20260502100722 | 11 | 147 | 22.5 | 24.1 | 0.00 | 0.00 | 0.00 | 50 | 1023.4 |
| 20260502100220 | 11 | 163 | 8.0 | 20.9 | 0.00 | 0.00 | 0.00 | 50 | 1023.2 |
| 20260502091154 | 8 | 149 | 3.2 | 4.8 | 0.00 | 0.00 | 0.00 | 49 | 1023.0 |
| 20260502090651 | 8 | 126 | 1.6 | 4.8 | 0.00 | 0.00 | 0.00 | 49 | 1023.0 |
| 20260502090148 | 8 | 206 | 3.2 | 4.8 | 0.00 | 0.00 | 0.00 | 48 | 1023.2 |
| 20260502071044 | 8 | 47 | 1.6 | 4.8 | 0.00 | 0.00 | 0.00 | 49 | 1023.5 |
| 20260502070542 | 9 | 352 | 0.0 | 1.6 | 0.00 | 0.00 | 0.00 | 46 | 1023.5 |
| 20260502070039 | 9 | 293 | 0.0 | 3.2 | 0.00 | 0.00 | 0.00 | 46 | 1023.3 |
| 20260502065538 | 9 | 260 | 0.0 | 4.8 | 0.00 | 0.00 | 0.00 | 47 | 1023.4 |
| 20260502065035 | 9 | 358 | 1.6 | 4.8 | 0.00 | 0.00 | 0.00 | 47 | 1023.4 |
| 20260502064533 | 9 | 309 | 3.2 | 4.8 | 0.00 | 0.00 | 0.00 | 46 | 1023.2 |
| 20260502064030 | 9 | 254 | 3.2 | 6.4 | 0.00 | 0.00 | 0.00 | 47 | 1023.5 |
| 20260502063528 | 9 | 283 | 3.2 | 6.4 | 0.00 | 0.00 | 0.00 | 46 | 1023.3 |
| 20260502063025 | 9 | 352 | 0.0 | 4.8 | 0.00 | 0.00 | 0.00 | 45 | 1023.3 |
| 20260502062522 | 10 | 246 | 0.0 | 3.2 | 0.00 | 0.00 | 0.00 | 45 | 1023.5 |
| 20260502062021 | 10 | 212 | 1.6 | 3.2 | 0.00 | 0.00 | 0.00 | 45 | 1023.4 |
| 20260502061518 | 10 | 260 | 0.0 | 4.8 | 0.00 | 0.00 | 0.00 | 44 | 1023.3 |
| 20260502061015 | 10 | 218 | 0.0 | 4.8 | 0.00 | 0.00 | 0.00 | 44 | 1023.2 |
| 20260502060510 | 10 | 246 | 0.0 | 1.6 | 0.00 | 0.00 | 0.00 | 44 | 1023.3 |
| 20260502060007 | 10 | 267 | 0.0 | 4.8 | 0.00 | 0.00 | 0.00 | 43 | 1023.2 |
| 20260502055504 | 10 | 285 | 1.6 | 3.2 | 0.00 | 0.00 | 0.00 | 42 | 1023.0 |
| 20260502055004 | 10 | 346 | 0.0 | 3.2 | 0.00 | 0.00 | 0.00 | 42 | 1023.3 |
| 20260502054502 | 10 | 318 | 1.6 | 4.8 | 0.00 | 0.00 | 0.00 | 42 | 1023.4 |
| 20260502053958 | 10 | 341 | 3.2 | 4.8 | 0.00 | 0.00 | 0.00 | 43 | 1023.0 |
| 20260502053455 | 10 | 339 | 3.2 | 4.8 | 0.00 | 0.00 | 0.00 | 42 | 1023.3 |
| 20260502052953 | 10 | 321 | 0.0 | 3.2 | 0.00 | 0.00 | 0.00 | 41 | 1023.2 |
| 20260502052451 | 10 | 21 | 0.0 | 3.2 | 0.00 | 0.00 | 0.00 | 41 | 1023.3 |
| 20260502051949 | 11 | 32 | 0.0 | 3.2 | 0.00 | 0.00 | 0.00 | 41 | 1023.2 |
| 20260502051447 | 11 | 309 | 4.8 | 6.4 | 0.00 | 0.00 | 0.00 | 40 | 1023.0 |
| 20260502050944 | 11 | 4 | 3.2 | 6.4 | 0.00 | 0.00 | 0.00 | 40 | 1023.0 |
| 20260502050440 | 11 | 295 | 4.8 | 4.8 | 0.00 | 0.00 | 0.00 | 39 | 1023.3 |
| 20260502045937 | 11 | 318 | 4.8 | 4.8 | 0.00 | 0.00 | 0.00 | 38 | 1023.3 |
| 20260502045434 | 11 | 297 | 4.8 | 8.0 | 0.00 | 0.00 | 0.00 | 38 | 1023.2 |
| 20260502044931 | 11 | 14 | 0.0 | 4.8 | 0.00 | 0.00 | 0.00 | 38 | 1023.2 |
| 20260502044427 | 11 | 269 | 4.8 | 6.4 | 0.00 | 0.00 | 0.00 | 38 | 1023.2 |
| 20260502043924 | 12 | 339 | 1.6 | 8.0 | 0.00 | 0.00 | 0.00 | 38 | 1023.0 |
| 20260502043422 | 11 | 332 | 1.6 | 4.8 | 0.00 | 0.00 | 0.00 | 39 | 1022.9 |
| 20260502042921 | 11 | 331 | 3.2 | 4.8 | 0.00 | 0.00 | 0.00 | 39 | 1023.2 |
| 20260502042419 | 12 | 339 | 0.0 | 4.8 | 0.00 | 0.00 | 0.00 | 38 | 1023.3 |
| 20260502041915 | 12 | 305 | 0.0 | 3.2 | 0.00 | 0.00 | 0.00 | 38 | 1023.0 |
| 20260502041414 | 12 | 305 | 0.0 | 3.2 | 0.00 | 0.00 | 0.00 | 36 | 1023.0 |
| 20260502040910 | 12 | 16 | 3.2 | 8.0 | 0.00 | 0.00 | 0.00 | 37 | 1022.9 |
| 20260502040407 | 12 | 51 | 4.8 | 6.4 | 0.00 | 0.00 | 0.00 | 36 | 1023.0 |
| 20260502035903 | 12 | 9 | 8.0 | 11.3 | 0.00 | 0.00 | 0.00 | 36 | 1022.9 |
| 20260502035400 | 12 | 36 | 6.4 | 11.3 | 0.00 | 0.00 | 0.00 | 38 | 1022.9 |
| 20260502034857 | 12 | 34 | 4.8 | 6.4 | 0.00 | 0.00 | 0.00 | 38 | 1022.6 |
| 20260502034356 | 12 | 313 | 4.8 | 9.7 | 0.00 | 0.00 | 0.00 | 36 | 1022.6 |
| 20260502033854 | 13 | 336 | 4.8 | 9.7 | 0.00 | 0.00 | 0.00 | 36 | 1022.6 |
| 20260502033351 | 13 | 280 | 4.8 | 8.0 | 0.00 | 0.00 | 0.00 | 35 | 1022.5 |
| 20260502032847 | 13 | 309 | 6.4 | 11.3 | 0.00 | 0.00 | 0.00 | 35 | 1022.6 |
| 20260502032343 | 13 | 330 | 4.8 | 11.3 | 0.00 | 0.00 | 0.00 | 34 | 1022.4 |
| 20260502031841 | 13 | 334 | 1.6 | 8.0 | 0.00 | 0.00 | 0.00 | 33 | 1022.4 |
| 20260502031340 | 13 | 324 | 1.6 | 6.4 | 0.00 | 0.00 | 0.00 | 33 | 1022.2 |
| 20260502030837 | 13 | 306 | 1.6 | 8.0 | 0.00 | 0.00 | 0.00 | 32 | 1022.2 |
| 20260502030336 | 14 | 15 | 3.2 | 6.4 | 0.00 | 0.00 | 0.00 | 31 | 1021.9 |
| 20260502025832 | 15 | 358 | 3.2 | 6.4 | 0.00 | 0.00 | 0.00 | 30 | 1022.0 |
| 20260502025330 | 15 | 294 | 6.4 | 8.0 | 0.00 | 0.00 | 0.00 | 30 | 1021.7 |
| 20260502024828 | 15 | 0 | 3.2 | 9.7 | 0.00 | 0.00 | 0.00 | 30 | 1022.0 |
| 20260502024325 | 15 | 356 | 4.8 | 8.0 | 0.00 | 0.00 | 0.00 | 29 | 1021.9 |
| 20260502023823 | 15 | 1 | 3.2 | 8.0 | 0.00 | 0.00 | 0.00 | 28 | 1021.9 |
| 20260502023321 | 15 | 352 | 4.8 | 11.3 | 0.00 | 0.00 | 0.00 | 28 | 1021.7 |
| 20260502022818 | 15 | 357 | 12.9 | 12.9 | 0.00 | 0.00 | 0.00 | 28 | 1021.7 |
| 20260502022315 | 15 | 342 | 6.4 | 12.9 | 0.00 | 0.00 | 0.00 | 28 | 1021.7 |
| 20260502021811 | 15 | 342 | 8.0 | 17.7 | 0.00 | 0.00 | 0.00 | 28 | 1021.9 |
| 20260502021309 | 16 | 3 | 4.8 | 17.7 | 0.00 | 0.00 | 0.00 | 28 | 1021.7 |
| 20260502020806 | 16 | 345 | 9.7 | 14.5 | 0.00 | 0.00 | 0.00 | 28 | 1021.6 |
| 20260502020303 | 16 | 351 | 6.4 | 17.7 | 0.00 | 0.00 | 0.00 | 27 | 1021.7 |
| 20260502015800 | 16 | 3 | 9.7 | 17.7 | 0.00 | 0.00 | 0.00 | 27 | 1021.6 |
| 20260502015256 | 16 | 8 | 3.2 | 20.9 | 0.00 | 0.00 | 0.00 | 27 | 1021.6 |
| 20260502014755 | 17 | 24 | 8.0 | 14.5 | 0.00 | 0.00 | 0.00 | 26 | 1021.4 |
| 20260502014251 | 17 | 18 | 6.4 | 22.5 | 0.00 | 0.00 | 0.00 | 26 | 1021.4 |
| 20260502013747 | 17 | 11 | 17.7 | 22.5 | 0.00 | 0.00 | 0.00 | 25 | 1021.2 |
| 20260502013243 | 17 | 19 | 6.4 | 27.4 | 0.00 | 0.00 | 0.00 | 26 | 1021.3 |
| 20260502012740 | 17 | 6 | 6.4 | 19.3 | 0.00 | 0.00 | 0.00 | 27 | 1021.3 |
| 20260502012238 | 17 | 1 | 22.5 | 27.4 | 0.00 | 0.00 | 0.00 | 26 | 1021.3 |
| 20260502011735 | 17 | 11 | 4.8 | 22.5 | 0.00 | 0.00 | 0.00 | 27 | 1021.3 |
| 20260502011231 | 17 | 4 | 8.0 | 20.9 | 0.00 | 0.00 | 0.00 | 26 | 1021.2 |
| 20260502010729 | 17 | 1 | 4.8 | 24.1 | 0.00 | 0.00 | 0.00 | 26 | 1021.2 |
| 20260502010224 | 18 | 7 | 9.7 | 22.5 | 0.00 | 0.00 | 0.00 | 25 | 1021.6 |
| 20260502005722 | 18 | 18 | 8.0 | 20.9 | 0.00 | 0.00 | 0.00 | 25 | 1021.2 |
| 20260502005220 | 18 | 15 | 6.4 | 19.3 | 0.00 | 0.00 | 0.00 | 25 | 1021.4 |
| 20260502004716 | 17 | 22 | 17.7 | 27.4 | 0.00 | 0.00 | 0.00 | 25 | 1021.3 |
| 20260502004212 | 18 | 350 | 6.4 | 24.1 | 0.00 | 0.00 | 0.00 | 25 | 1021.6 |
| 20260502003710 | 18 | 358 | 8.0 | 24.1 | 0.00 | 0.00 | 0.00 | 25 | 1021.6 |
| 20260502003208 | 17 | 348 | 22.5 | 25.7 | 0.00 | 0.00 | 0.00 | 25 | 1021.2 |
| 20260502002703 | 18 | 10 | 16.1 | 24.1 | 0.00 | 0.00 | 0.00 | 24 | 1021.6 |
| 20260502002201 | 18 | 4 | 14.5 | 17.7 | 0.00 | 0.00 | 0.00 | 25 | 1021.6 |
| 20260502001658 | 18 | 354 | 4.8 | 22.5 | 0.00 | 0.00 | 0.00 | 25 | 1021.6 |
| 20260502001155 | 18 | 10 | 12.9 | 25.7 | 0.00 | 0.00 | 0.00 | 24 | 1021.6 |
| 20260502000653 | 18 | 314 | 6.4 | 24.1 | 0.00 | 0.00 | 0.00 | 24 | 1021.7 |
| 20260502000151 | 18 | 333 | 14.5 | 32.2 | 0.00 | 0.00 | 0.00 | 25 | 1021.8 |
| 20260501235646 | 18 | 332 | 16.1 | 24.1 | 0.00 | 0.00 | 0.00 | 25 | 1021.7 |
| 20260501235143 | 18 | 317 | 22.5 | 22.5 | 0.00 | 0.00 | 0.00 | 24 | 1021.6 |
| 20260501234638 | 18 | 343 | 17.7 | 22.5 | 0.00 | 0.00 | 0.00 | 24 | 1021.4 |
| 20260501234136 | 18 | 341 | 3.2 | 24.1 | 0.00 | 0.00 | 0.00 | 25 | 1021.7 |
| 20260501233633 | 18 | 0 | 12.9 | 29.0 | 0.00 | 0.00 | 0.00 | 23 | 1021.6 |
| 20260501233131 | 18 | 33 | 12.9 | 32.2 | 0.00 | 0.00 | 0.00 | 23 | 1021.7 |
| 20260501232627 | 18 | 303 | 17.7 | 30.6 | 0.00 | 0.00 | 0.00 | 24 | 1021.7 |
| 20260501232124 | 18 | 313 | 17.7 | 20.9 | 0.00 | 0.00 | 0.00 | 23 | 1021.7 |
| 20260501231622 | 18 | 330 | 8.0 | 27.4 | 0.00 | 0.00 | 0.00 | 25 | 1021.7 |
| 20260501231120 | 18 | 2 | 19.3 | 29.0 | 0.00 | 0.00 | 0.00 | 23 | 1021.6 |
| 20260501230618 | 18 | 15 | 8.0 | 24.1 | 0.00 | 0.00 | 0.00 | 23 | 1021.7 |
| 20260501230116 | 18 | 6 | 11.3 | 24.1 | 0.00 | 0.00 | 0.00 | 22 | 1021.8 |
| 20260501225613 | 18 | 15 | 11.3 | 20.9 | 0.00 | 0.00 | 0.00 | 24 | 1021.8 |
| 20260501225109 | 18 | 56 | 6.4 | 17.7 | 0.00 | 0.00 | 0.00 | 23 | 1021.6 |
| 20260501224607 | 18 | 22 | 8.0 | 32.2 | 0.00 | 0.00 | 0.00 | 22 | 1021.8 |
| 20260501224103 | 18 | 4 | 17.7 | 19.3 | 0.00 | 0.00 | 0.00 | 22 | 1021.9 |
| 20260501223600 | 18 | 355 | 4.8 | 14.5 | 0.00 | 0.00 | 0.00 | 23 | 1021.8 |
| 20260501223056 | 18 | 0 | 8.0 | 22.5 | 0.00 | 0.00 | 0.00 | 23 | 1021.7 |
| 20260501222553 | 18 | 355 | 16.1 | 25.7 | 0.00 | 0.00 | 0.00 | 21 | 1021.9 |
| 20260501222050 | 18 | 349 | 8.0 | 20.9 | 0.00 | 0.00 | 0.00 | 21 | 1021.6 |
| 20260501221546 | 18 | 7 | 12.9 | 25.7 | 0.00 | 0.00 | 0.00 | 22 | 1021.9 |
| 20260501221044 | 18 | 15 | 11.3 | 22.5 | 0.00 | 0.00 | 0.00 | 23 | 1021.9 |
| 20260501220542 | 18 | 32 | 11.3 | 20.9 | 0.00 | 0.00 | 0.00 | 23 | 1022.0 |
| 20260501220038 | 18 | 284 | 8.0 | 14.5 | 0.00 | 0.00 | 0.00 | 23 | 1022.0 |
| 20260501215534 | 18 | 6 | 20.9 | 20.9 | 0.00 | 0.00 | 0.00 | 23 | 1022.0 |
| 20260501215030 | 18 | 121 | 11.3 | 17.7 | 0.00 | 0.00 | 0.00 | 22 | 1022.0 |
| 20260501214525 | 18 | 38 | 6.4 | 12.9 | 0.00 | 0.00 | 0.00 | 24 | 1022.1 |
| 20260501214021 | 18 | 8 | 4.8 | 17.7 | 0.00 | 0.00 | 0.00 | 23 | 1022.1 |
| 20260501213519 | 19 | 21 | 19.3 | 25.7 | 0.00 | 0.00 | 0.00 | 23 | 1022.4 |
| 20260501213015 | 19 | 0 | 4.8 | 12.9 | 0.00 | 0.00 | 0.00 | 23 | 1022.0 |
| 20260501212511 | 19 | 6 | 12.9 | 24.1 | 0.00 | 0.00 | 0.00 | 23 | 1022.2 |
| 20260501212008 | 18 | 101 | 8.0 | 19.3 | 0.00 | 0.00 | 0.00 | 22 | 1022.1 |
| 20260501211505 | 18 | 28 | 9.7 | 14.5 | 0.00 | 0.00 | 0.00 | 23 | 1022.2 |
| 20260501211003 | 18 | 92 | 9.7 | 17.7 | 0.00 | 0.00 | 0.00 | 22 | 1022.4 |
| 20260501210458 | 17 | 204 | 4.8 | 14.5 | 0.00 | 0.00 | 0.00 | 23 | 1022.6 |
| 20260501205955 | 18 | 13 | 4.8 | 22.5 | 0.00 | 0.00 | 0.00 | 24 | 1022.2 |
| 20260501205452 | 17 | 308 | 17.7 | 17.7 | 0.00 | 0.00 | 0.00 | 24 | 1022.4 |
| 20260501204950 | 18 | 316 | 9.7 | 16.1 | 0.00 | 0.00 | 0.00 | 23 | 1022.4 |
| 20260501204445 | 18 | 227 | 4.8 | 11.3 | 0.00 | 0.00 | 0.00 | 24 | 1022.5 |
| 20260501203942 | 17 | 313 | 3.2 | 11.3 | 0.00 | 0.00 | 0.00 | 22 | 1022.6 |
| 20260501203439 | 18 | 295 | 4.8 | 9.7 | 0.00 | 0.00 | 0.00 | 22 | 1022.5 |
| 20260501202937 | 17 | 61 | 6.4 | 9.7 | 0.00 | 0.00 | 0.00 | 22 | 1022.5 |
| 20260501202433 | 17 | 349 | 4.8 | 17.7 | 0.00 | 0.00 | 0.00 | 24 | 1022.5 |
| 20260501201929 | 17 | 44 | 9.7 | 14.5 | 0.00 | 0.00 | 0.00 | 23 | 1022.7 |
| 20260501201427 | 17 | 289 | 3.2 | 16.1 | 0.00 | 0.00 | 0.00 | 25 | 1022.6 |
| 20260501200923 | 17 | 18 | 4.8 | 12.9 | 0.00 | 0.00 | 0.00 | 22 | 1022.6 |
| 20260501200420 | 17 | 348 | 3.2 | 20.9 | 0.00 | 0.00 | 0.00 | 23 | 1022.7 |
| 20260501195918 | 17 | 9 | 12.9 | 20.9 | 0.00 | 0.00 | 0.00 | 24 | 1022.4 |
| 20260501195415 | 17 | 0 | 6.4 | 20.9 | 0.00 | 0.00 | 0.00 | 24 | 1022.7 |
| 20260501194910 | 17 | 175 | 6.4 | 19.3 | 0.00 | 0.00 | 0.00 | 24 | 1022.8 |
| 20260501194406 | 17 | 34 | 4.8 | 20.9 | 0.00 | 0.00 | 0.00 | 24 | 1022.7 |
| 20260501193902 | 17 | 7 | 6.4 | 14.5 | 0.00 | 0.00 | 0.00 | 25 | 1022.9 |
| 20260501193401 | 17 | 17 | 12.9 | 14.5 | 0.00 | 0.00 | 0.00 | 22 | 1022.9 |
| 20260501192858 | 17 | 29 | 14.5 | 22.5 | 0.00 | 0.00 | 0.00 | 23 | 1022.8 |
| 20260501192355 | 16 | 345 | 8.0 | 14.5 | 0.00 | 0.00 | 0.00 | 24 | 1022.8 |
| 20260501191852 | 17 | 326 | 19.3 | 22.5 | 0.00 | 0.00 | 0.00 | 26 | 1022.8 |
| 20260501191349 | 17 | 23 | 8.0 | 17.7 | 0.00 | 0.00 | 0.00 | 24 | 1022.8 |
| 20260501190846 | 17 | 336 | 11.3 | 14.5 | 0.00 | 0.00 | 0.00 | 24 | 1023.0 |
| 20260501190342 | 17 | 351 | 12.9 | 17.7 | 0.00 | 0.00 | 0.00 | 24 | 1022.9 |
| 20260501185837 | 17 | 56 | 6.4 | 22.5 | 0.00 | 0.00 | 0.00 | 26 | 1022.9 |
| 20260501185334 | 16 | 333 | 17.7 | 22.5 | 0.00 | 0.00 | 0.00 | 25 | 1023.0 |
| 20260501184829 | 16 | 302 | 1.6 | 22.5 | 0.00 | 0.00 | 0.00 | 22 | 1023.3 |
| 20260501184325 | 17 | 71 | 9.7 | 12.9 | 0.00 | 0.00 | 0.00 | 22 | 1023.2 |
| 20260501183821 | 16 | 79 | 6.4 | 14.5 | 0.00 | 0.00 | 0.00 | 23 | 1023.0 |
| 20260501183319 | 16 | 10 | 12.9 | 16.1 | 0.00 | 0.00 | 0.00 | 24 | 1023.4 |
| 20260501182815 | 16 | 317 | 6.4 | 14.5 | 0.00 | 0.00 | 0.00 | 24 | 1023.4 |
| 20260501182312 | 17 | 72 | 6.4 | 14.5 | 0.00 | 0.00 | 0.00 | 23 | 1023.6 |
| 20260501181809 | 16 | 76 | 6.4 | 20.9 | 0.00 | 0.00 | 0.00 | 22 | 1023.6 |
| 20260501181306 | 16 | 59 | 4.8 | 12.9 | 0.00 | 0.00 | 0.00 | 25 | 1023.4 |
| 20260501180803 | 15 | 272 | 3.2 | 11.3 | 0.00 | 0.00 | 0.00 | 27 | 1023.4 |
| 20260501180259 | 15 | 341 | 17.7 | 30.6 | 0.00 | 0.00 | 0.00 | 27 | 1023.4 |
| 20260501175756 | 15 | 359 | 6.4 | 14.5 | 0.00 | 0.00 | 0.00 | 28 | 1023.6 |
| 20260501175253 | 15 | 287 | 11.3 | 14.5 | 0.00 | 0.00 | 0.00 | 26 | 1023.6 |
| 20260501174749 | 16 | 8 | 4.8 | 11.3 | 0.00 | 0.00 | 0.00 | 27 | 1023.6 |
| 20260501174247 | 15 | 356 | 12.9 | 17.7 | 0.00 | 0.00 | 0.00 | 28 | 1024.0 |
| 20260501173745 | 15 | 341 | 6.4 | 16.1 | 0.00 | 0.00 | 0.00 | 30 | 1023.7 |
| 20260501173241 | 15 | 275 | 6.4 | 24.1 | 0.00 | 0.00 | 0.00 | 29 | 1023.5 |
| 20260501172737 | 15 | 317 | 14.5 | 19.3 | 0.00 | 0.00 | 0.00 | 30 | 1023.6 |
| 20260501172233 | 15 | 352 | 8.0 | 12.9 | 0.00 | 0.00 | 0.00 | 30 | 1023.8 |
| 20260501171729 | 15 | 193 | 6.4 | 17.7 | 0.00 | 0.00 | 0.00 | 29 | 1023.8 |
| 20260501171226 | 15 | 42 | 8.0 | 14.5 | 0.00 | 0.00 | 0.00 | 28 | 1024.0 |
| 20260501170723 | 15 | 60 | 4.8 | 8.0 | 0.00 | 0.00 | 0.00 | 28 | 1023.8 |
| 20260501170220 | 15 | 347 | 6.4 | 11.3 | 0.00 | 0.00 | 0.00 | 29 | 1023.7 |
| 20260501165717 | 15 | 65 | 8.0 | 11.3 | 0.00 | 0.00 | 0.00 | 28 | 1023.8 |
| 20260501165214 | 14 | 66 | 6.4 | 17.7 | 0.00 | 0.00 | 0.00 | 30 | 1023.7 |
| 20260501164712 | 13 | 89 | 4.8 | 14.5 | 0.00 | 0.00 | 0.00 | 32 | 1023.8 |
| 20260501164209 | 15 | 47 | 3.2 | 12.9 | 0.00 | 0.00 | 0.00 | 32 | 1023.7 |
| 20260501163705 | 13 | 275 | 3.2 | 11.3 | 0.00 | 0.00 | 0.00 | 33 | 1023.7 |
| 20260501163202 | 15 | 356 | 11.3 | 12.9 | 0.00 | 0.00 | 0.00 | 31 | 1023.8 |
| 20260501162658 | 14 | 255 | 3.2 | 8.0 | 0.00 | 0.00 | 0.00 | 31 | 1023.7 |
| 20260501162155 | 15 | 108 | 4.8 | 12.9 | 0.00 | 0.00 | 0.00 | 31 | 1023.5 |
| 20260501161652 | 13 | 44 | 4.8 | 12.9 | 0.00 | 0.00 | 0.00 | 33 | 1023.6 |
| 20260501161149 | 14 | 298 | 0.0 | 8.0 | 0.00 | 0.00 | 0.00 | 35 | 1023.7 |
| 20260501160646 | 14 | 149 | 8.0 | 12.9 | 0.00 | 0.00 | 0.00 | 34 | 1023.7 |
| 20260501160143 | 13 | 180 | 1.6 | 4.8 | 0.00 | 0.00 | 0.00 | 34 | 1023.7 |
| 20260501155639 | 14 | 44 | 3.2 | 6.4 | 0.00 | 0.00 | 0.00 | 36 | 1023.7 |
| 20260501155137 | 13 | 138 | 6.4 | 11.3 | 0.00 | 0.00 | 0.00 | 36 | 1023.6 |
| 20260501154634 | 13 | 71 | 4.8 | 8.0 | 0.00 | 0.00 | 0.00 | 37 | 1023.3 |
| 20260501154131 | 13 | 82 | 11.3 | 16.1 | 0.00 | 0.00 | 0.00 | 37 | 1023.7 |
| 20260501153628 | 13 | 163 | 1.6 | 11.3 | 0.00 | 0.00 | 0.00 | 37 | 1023.5 |
| 20260501153125 | 13 | 84 | 6.4 | 9.7 | 0.00 | 0.00 | 0.00 | 36 | 1023.6 |
| 20260501152621 | 13 | 33 | 6.4 | 8.0 | 0.00 | 0.00 | 0.00 | 37 | 1023.5 |
| 20260501152119 | 12 | 68 | 4.8 | 11.3 | 0.00 | 0.00 | 0.00 | 39 | 1023.5 |
| 20260501151615 | 12 | 121 | 4.8 | 9.7 | 0.00 | 0.00 | 0.00 | 38 | 1023.5 |
| 20260501151112 | 12 | 119 | 4.8 | 12.9 | 0.00 | 0.00 | 0.00 | 38 | 1023.4 |
| 20260501150609 | 12 | 128 | 3.2 | 4.8 | 0.00 | 0.00 | 0.00 | 39 | 1023.6 |